Time,TemperatureF,DewpointF,PressureIn,WindDirection,WindDirectionDegrees,WindSpeedMPH,WindSpeedGustMPH,Humidity,HourlyPrecipIn,Conditions,Clouds,dailyrainin,SoftwareType,DateUTC
2013-07-10 00:01:00,74.0,73.0,30.05,SSE,153,0.0,0.0,96,0.00,,,0.29,,2013-07-10 04:01:00,
2013-07-10 00:11:00,74.0,73.0,30.05,SSE,153,0.0,0.0,96,0.00,,,0.29,,2013-07-10 04:11:00,
2013-07-10 00:22:00,74.0,73.0,30.05,SSE,153,0.0,0.0,96,0.00,,,0.29,,2013-07-10 04:22:00,
2013-07-10 00:33:00,74.0,73.0,30.04,SSE,153,0.0,0.0,96,0.00,,,0.29,,2013-07-10 04:33:00,
2013-07-10 00:43:00,74.0,73.0,30.04,SSE,153,0.0,1.0,96,0.00,,,0.29,,2013-07-10 04:43:00,
2013-07-10 00:52:00,74.0,73.0,30.04,SSE,153,0.0,0.0,97,0.00,,,0.29,,2013-07-10 04:52:00,
2013-07-10 01:02:00,74.0,73.0,30.04,SSE,153,0.0,2.0,97,0.00,,,0.29,,2013-07-10 05:02:00,
2013-07-10 01:12:00,74.0,73.0,30.04,SSE,153,0.0,2.0,97,0.00,,,0.29,,2013-07-10 05:12:00,
2013-07-10 01:22:00,74.0,73.0,30.04,SSE,153,0.0,2.0,97,0.00,,,0.29,,2013-07-10 05:22:00,
2013-07-10 01:32:00,74.0,73.0,30.04,SSE,153,0.0,2.0,97,0.00,,,0.29,,2013-07-10 05:32:00,
2013-07-10 01:52:00,74.0,73.0,30.04,SSE,153,0.0,0.0,97,0.00,,,0.29,,2013-07-10 05:52:00,
2013-07-10 02:01:00,74.0,73.0,30.04,SSE,153,0.0,2.0,97,0.00,,,0.29,,2013-07-10 06:01:00,
2013-07-10 02:11:00,74.0,73.0,30.04,SSE,153,0.0,1.0,97,0.00,,,0.29,,2013-07-10 06:11:00,
2013-07-10 02:22:00,74.0,73.0,30.03,SSE,153,0.0,3.0,97,0.00,,,0.29,,2013-07-10 06:22:00,
2013-07-10 02:32:00,74.0,73.0,30.03,SSE,155,0.0,2.0,97,0.00,,,0.29,,2013-07-10 06:32:00,
2013-07-10 02:42:00,73.0,72.0,30.03,SSE,155,0.0,2.0,97,0.00,,,0.29,,2013-07-10 06:42:00,
2013-07-10 02:52:00,73.0,72.0,30.02,SSE,155,0.0,3.0,97,0.00,,,0.29,,2013-07-10 06:52:00,
2013-07-10 03:01:00,73.0,72.0,30.01,SSE,155,0.0,3.0,97,0.00,,,0.29,,2013-07-10 07:01:00,
2013-07-10 03:12:00,73.0,72.0,30.01,SSE,160,0.0,3.0,97,0.00,,,0.29,,2013-07-10 07:12:00,
2013-07-10 03:22:00,73.0,72.0,30.01,SSE,160,0.0,3.0,97,0.00,,,0.29,,2013-07-10 07:22:00,
2013-07-10 03:33:00,73.0,72.0,30.01,SSE,160,0.0,2.0,97,0.00,,,0.29,,2013-07-10 07:33:00,
2013-07-10 03:43:00,73.0,72.0,30.01,SSE,160,0.0,4.0,97,0.00,,,0.29,,2013-07-10 07:43:00,
2013-07-10 03:53:00,73.0,72.0,30.01,SSE,160,0.0,1.0,97,0.00,,,0.29,,2013-07-10 07:53:00,
2013-07-10 04:02:00,73.0,72.0,30.01,SSE,160,0.0,2.0,97,0.00,,,0.29,,2013-07-10 08:02:00,
2013-07-10 04:11:00,73.0,72.0,30.01,SSE,160,1.0,2.0,97,0.00,,,0.29,,2013-07-10 08:11:00,
2013-07-10 04:33:00,73.0,72.0,30.01,SSE,160,0.0,3.0,98,0.00,,,0.29,,2013-07-10 08:33:00,
2013-07-10 04:42:00,73.0,72.0,30.01,SSE,160,0.0,5.0,98,0.00,,,0.29,,2013-07-10 08:42:00,
2013-07-10 04:53:00,73.0,72.0,30.01,SSE,160,0.0,3.0,98,0.00,,,0.29,,2013-07-10 08:53:00,
2013-07-10 05:02:00,73.0,72.0,30.01,SSE,160,0.0,0.0,98,0.00,,,0.29,,2013-07-10 09:02:00,
2013-07-10 05:12:00,74.0,73.0,30.01,SSE,160,0.0,0.0,98,0.00,,,0.29,,2013-07-10 09:12:00,
2013-07-10 05:52:00,74.0,73.0,30.01,SSE,160,0.0,0.0,98,0.00,,,0.29,,2013-07-10 09:52:00,
2013-07-10 06:01:00,74.0,73.0,30.01,South,172,0.0,3.0,98,0.00,,,0.29,,2013-07-10 10:01:00,
2013-07-10 06:13:00,74.0,73.0,30.01,South,172,0.0,1.0,98,0.00,,,0.29,,2013-07-10 10:13:00,
2013-07-10 06:51:00,-999.0,-99.9,30.01,South,172,0.0,2.0,-999,-99.99,,,-99.99,,2013-07-10 10:51:00,
2013-07-10 07:00:00,-999.0,-99.9,30.01,South,172,0.0,2.0,-999,-99.99,,,-99.99,,2013-07-10 11:00:00,
2013-07-10 07:43:00,74.0,73.0,30.02,South,174,0.0,3.0,97,0.00,,,0.29,,2013-07-10 11:43:00,
2013-07-10 07:52:00,74.0,73.0,30.01,South,174,0.0,1.0,97,0.00,,,0.29,,2013-07-10 11:52:00,
2013-07-10 08:02:00,74.0,73.0,30.02,South,174,0.0,0.0,97,0.00,,,0.29,,2013-07-10 12:02:00,
2013-07-10 08:22:00,74.0,73.0,30.02,South,175,0.0,2.0,97,0.00,,,0.29,,2013-07-10 12:22:00,
2013-07-10 08:53:00,75.0,74.0,30.02,SSE,162,1.0,5.0,96,0.00,,,0.29,,2013-07-10 12:53:00,
2013-07-10 09:01:00,75.0,73.0,30.03,SSE,168,0.0,6.0,95,0.00,,,0.29,,2013-07-10 13:01:00,
2013-07-10 09:11:00,75.0,73.0,30.03,SSE,168,0.0,6.0,95,0.00,,,0.29,,2013-07-10 13:11:00,
2013-07-10 09:32:00,76.0,74.0,30.02,South,183,2.0,4.0,93,0.00,,,0.29,,2013-07-10 13:32:00,
2013-07-10 09:43:00,76.0,74.0,30.02,South,182,0.0,5.0,93,0.00,,,0.29,,2013-07-10 13:43:00,
2013-07-10 09:52:00,76.0,74.0,30.02,SSE,158,1.0,9.0,92,0.00,,,0.29,,2013-07-10 13:52:00,
2013-07-10 10:01:00,77.0,74.0,30.02,SE,142,1.0,7.0,91,0.00,,,0.29,,2013-07-10 14:01:00,
2013-07-10 10:53:00,79.0,75.0,30.01,SE,143,0.0,7.0,87,0.00,,,0.29,,2013-07-10 14:53:00,
2013-07-10 11:01:00,78.0,74.0,30.02,SSW,210,0.0,8.0,88,0.00,,,0.29,,2013-07-10 15:01:00,
2013-07-10 11:11:00,78.0,74.0,30.02,SSE,168,1.0,6.0,87,0.00,,,0.29,,2013-07-10 15:11:00,
2013-07-10 11:42:00,78.0,73.0,30.02,SSE,165,0.0,5.0,86,0.00,,,0.29,,2013-07-10 15:42:00,
2013-07-10 11:52:00,79.0,74.0,30.02,ESE,105,0.0,4.0,86,0.00,,,0.29,,2013-07-10 15:52:00,
2013-07-10 12:01:00,79.0,74.0,30.02,South,190,0.0,5.0,86,0.00,,,0.29,,2013-07-10 16:01:00,
2013-07-10 12:11:00,79.0,74.0,30.02,South,190,0.0,2.0,86,0.00,,,0.29,,2013-07-10 16:11:00,
2013-07-10 12:44:00,80.0,74.0,30.02,WNW,291,0.0,6.0,82,0.00,,,0.29,,2013-07-10 16:44:00,
2013-07-10 12:53:00,80.0,74.0,30.01,SSW,199,0.0,5.0,83,0.00,,,0.29,,2013-07-10 16:53:00,
2013-07-10 13:43:00,85.0,75.0,30.00,WNW,284,0.0,5.0,73,0.00,,,0.29,,2013-07-10 17:43:00,
2013-07-10 13:53:00,84.0,74.0,29.99,South,170,1.0,6.0,72,0.00,,,0.29,,2013-07-10 17:53:00,
2013-07-10 14:02:00,84.0,74.0,29.98,SSW,206,0.0,1.0,72,0.00,,,0.29,,2013-07-10 18:02:00,
2013-07-10 14:11:00,84.0,74.0,29.98,SW,214,1.0,3.0,73,0.00,,,0.29,,2013-07-10 18:11:00,
2013-07-10 14:53:00,82.0,75.0,29.96,SSE,155,2.0,6.0,80,0.00,,,0.29,,2013-07-10 18:53:00,
2013-07-10 15:01:00,81.0,75.0,29.96,WNW,291,0.0,3.0,83,0.13,,,0.42,,2013-07-10 19:01:00,
2013-07-10 15:11:00,80.0,76.0,29.96,WNW,290,0.0,3.0,88,0.15,,,0.44,,2013-07-10 19:11:00,
2013-07-10 15:32:00,79.0,76.0,29.95,SSE,162,0.0,1.0,90,0.25,,,0.54,,2013-07-10 19:32:00,
2013-07-10 15:42:00,79.0,76.0,29.95,SSE,162,0.0,0.0,92,0.25,,,0.54,,2013-07-10 19:42:00,
2013-07-10 15:53:00,80.0,78.0,29.93,SSE,162,0.0,0.0,93,0.25,,,0.25,,2013-07-10 19:53:00,
2013-07-10 16:02:00,80.0,77.0,29.93,SE,145,0.0,4.0,92,0.14,,,0.26,,2013-07-10 20:02:00,
2013-07-10 16:22:00,81.0,77.0,29.93,SSE,160,0.0,1.0,89,0.09,,,0.27,,2013-07-10 20:22:00,
2013-07-10 16:32:00,81.0,77.0,29.93,West,259,0.0,6.0,89,0.03,,,0.28,,2013-07-10 20:32:00,
2013-07-10 16:43:00,81.0,77.0,29.93,South,177,0.0,1.0,89,0.03,,,0.28,,2013-07-10 20:43:00,
2013-07-10 16:52:00,81.0,77.0,29.92,South,171,0.0,13.0,87,0.03,,,0.28,,2013-07-10 20:52:00,
2013-07-10 17:01:00,80.0,76.0,29.92,SSE,157,2.0,5.0,87,0.02,,,0.28,,2013-07-10 21:01:00,
2013-07-10 17:11:00,80.0,76.0,29.92,SSE,157,0.0,1.0,89,0.02,,,0.28,,2013-07-10 21:11:00,
2013-07-10 17:22:00,80.0,77.0,29.92,SSE,157,0.0,0.0,90,0.01,,,0.28,,2013-07-10 21:22:00,
2013-07-10 17:32:00,80.0,77.0,29.91,SSE,157,0.0,0.0,92,0.00,,,0.28,,2013-07-10 21:32:00,
2013-07-10 17:42:00,80.0,77.0,29.91,SSE,157,0.0,0.0,92,0.00,,,0.28,,2013-07-10 21:42:00,
2013-07-10 17:52:00,80.0,77.0,29.91,SSE,157,0.0,0.0,92,0.00,,,0.28,,2013-07-10 21:52:00,
2013-07-10 18:01:00,80.0,77.0,29.90,SSE,157,0.0,0.0,92,0.00,,,0.28,,2013-07-10 22:01:00,
2013-07-10 18:33:00,78.0,75.0,29.90,NW,305,0.0,2.0,91,0.01,,,0.29,,2013-07-10 22:33:00,
2013-07-10 18:43:00,78.0,75.0,29.90,NW,305,0.0,1.0,92,0.03,,,0.31,,2013-07-10 22:43:00,
2013-07-10 18:53:00,78.0,76.0,29.90,NW,305,0.0,0.0,93,0.03,,,0.31,,2013-07-10 22:53:00,
2013-07-10 19:01:00,78.0,76.0,29.89,NW,305,0.0,0.0,94,0.03,,,0.31,,2013-07-10 23:01:00,
2013-07-10 19:22:00,79.0,77.0,29.89,NW,305,0.0,0.0,94,0.03,,,0.31,,2013-07-10 23:22:00,
2013-07-10 19:32:00,78.0,76.0,29.90,NW,305,0.0,0.0,93,0.02,,,0.31,,2013-07-10 23:32:00,
2013-07-10 19:43:00,78.0,76.0,29.90,NW,305,0.0,0.0,93,0.02,,,0.31,,2013-07-10 23:43:00,
2013-07-10 19:52:00,78.0,76.0,29.90,NW,305,0.0,0.0,94,0.00,,,0.31,,2013-07-10 23:52:00,
2013-07-10 20:01:00,78.0,76.0,29.90,WNW,301,0.0,0.0,94,0.00,,,0.31,,2013-07-11 00:01:00,
2013-07-10 20:11:00,78.0,76.0,29.90,WNW,301,0.0,0.0,94,0.00,,,0.31,,2013-07-11 00:11:00,
2013-07-10 20:22:00,78.0,76.0,29.90,WNW,301,0.0,0.0,94,0.00,,,0.31,,2013-07-11 00:22:00,
2013-07-10 20:32:00,78.0,76.0,29.90,WNW,301,0.0,0.0,95,0.00,,,0.31,,2013-07-11 00:32:00,
2013-07-10 20:42:00,77.0,75.0,29.91,WNW,299,0.0,2.0,94,0.00,,,0.31,,2013-07-11 00:42:00,
2013-07-10 20:52:00,77.0,75.0,29.91,WNW,299,0.0,2.0,94,0.00,,,0.31,,2013-07-11 00:52:00,
2013-07-10 21:01:00,77.0,75.0,29.91,WNW,299,0.0,0.0,93,0.00,,,0.31,,2013-07-11 01:01:00,
2013-07-10 21:22:00,76.0,74.0,29.92,WNW,299,0.0,0.0,94,0.00,,,0.31,,2013-07-11 01:22:00,
2013-07-10 21:32:00,76.0,74.0,29.93,WNW,299,0.0,0.0,94,0.00,,,0.31,,2013-07-11 01:32:00,
2013-07-10 21:43:00,75.0,73.0,29.93,WNW,299,0.0,0.0,94,0.00,,,0.31,,2013-07-11 01:43:00,
2013-07-10 21:52:00,75.0,73.0,29.93,WNW,299,0.0,0.0,95,0.00,,,0.31,,2013-07-11 01:52:00,
2013-07-10 22:02:00,75.0,73.0,29.93,WNW,299,0.0,0.0,95,0.00,,,0.31,,2013-07-11 02:02:00,
2013-07-10 22:11:00,75.0,73.0,29.92,WNW,299,0.0,1.0,95,0.00,,,0.31,,2013-07-11 02:11:00,
2013-07-10 22:43:00,75.0,73.0,29.94,WNW,297,0.0,2.0,95,0.00,,,0.31,,2013-07-11 02:43:00,
2013-07-10 22:53:00,75.0,73.0,29.93,WNW,295,0.0,2.0,95,0.00,,,0.31,,2013-07-11 02:53:00,
2013-07-10 23:02:00,74.0,72.0,29.93,SE,144,0.0,3.0,95,0.00,,,0.31,,2013-07-11 03:02:00,
2013-07-10 23:11:00,74.0,72.0,29.93,SE,144,0.0,0.0,95,0.00,,,0.31,,2013-07-11 03:11:00,
2013-07-10 23:22:00,74.0,72.0,29.93,SE,144,0.0,0.0,95,0.00,,,0.31,,2013-07-11 03:22:00,